ONEWEB-0338, 49204

Orbit data source: Space-Track

ONEWEB-0338, 49204 is a payload satellite owned by One Web (NAA) (UK) in LEO that was launched on Tue, 14 Sep 2021 UTC via a SOYUZ-2-1B launch vehicle from the Tyuratam Missile And Space Complex (TTMTR). Payload-class satellites include a variety of spacecraft equipped with specific instruments for various scientific and technological missions. These include communications satellites like Starlink; space stations such as the ISS; scientific satellites like the Hubble; Earth observation satellites from companies like Planet Labs, Umbra, and HawkEye 360; GPS; miniature CubeSats for education and research; and military/defense satellites.

Loading next visibility...
Identifier
49204, 2021-083U
Orbit
LEO
Country
Flag of UKUK
Related business
Manufacturer
One Web
Mission
Operational Commercial Communications
Bus & Motor
ARROW, Unknown motor
Mass
148 kg wet, ~140 kg dry
Launch date (UTC)
2021-09-14 (5 years ago)
Launch vehicle
SOYUZ-2-1B
Launch site
Tyuratam Missile And Space Complex (TTMTR)
Object type
Payload
Rocket body
Debris
Shape & HBR
Trap Box + 2 Pan, 6.7 m
Radar Cross Section
3.464 m², Large (>1 m²)

Expand to show TLE details & history
Last TLE update: 2 days ago

TLE from 2 days ago
0 ONEWEB-0338
1 49204U 21083U   26171.29864228  .00000089  00000-0  18633-3 0  9992
2 49204  87.9185 273.8284 0001727 105.3850 254.7474 13.20774186237220
Epoch: 2026-06-20T07:10Z
TLE epoch observation values (Epoch: 2026-06-20T07:10:02.692Z)
Latitude
-0.00007°
Longitude
-102.19809°
Altitude
1,185.011 km
Speed
7.261 km/s
True Right ascension
18h 15m 18s
True Declination
0° 00' 00"
Sunlit
Object was in full shadow at epoch
Visualization orbit readout
Latitude
Unknown
Longitude
Unknown
Altitude
Unknown
Speed
Unknown
Apparent Right ascension
Unknown
Apparent Declination
Unknown
Sunlit
N/A
Visualization observer readout
Local Sidereal Time
00:25:46
Azimuth
Unknown
Elevation
Unknown
Doppler factor
Unknown
Orbital elements
Apogee altitude
1,180.174 km
Perigee altitude
1,177.563 km
Semi-major axis
7,557.005 km
Eccentricity
0.00017
Inclination
87.9185°
RAAN
273.8284°
Arg. of periapsis
105.385°
True anomaly
254.72831°
Mean anomaly
254.7474°
Eccentric anomaly
254.73785°
Mean motion
3.30384 °/min
Orbital period
108.96 mins
BSTAR
0.00018633
Loading maneuver chart data...
Computing Atmospheric mass density...
Loading historical data...
Loading historical data...
Loading historical data...
Loading historical data...
Loading historical data...
Loading historical data...
Loading historical data...

Documentation

Showing up to 5 results
|